Location: ??????
(38.0677°N, 22.9870°E)
Time: 17:52:41
(UTC+00:00)

Cosmos 1455 - Pass Details

Date: 23 May 2024
Orbit: 445 x 459 km, 82.5° (Epoch: 23 June)

Event Time Altitude Azimuth Distance (km) Brightness Sun altitude
Rises 00:29:26 0° 344° (NNW) 2,455 6.2 -24.4°
Reaches altitude 10° 00:31:35 10° 337° (NNW) 1,581 5.1 -24.2°
Enters shadow 00:32:57 21° 325° (NW) 1,071 4.0 -24.0°
